Weather History for Orlando International, FL

Change the Weather History Date:

Wednesday, April 2, 2014

  Actual Average Record
Temperature  
Mean Temperature 70 °F 69 °F  
Max Temperature 85 °F 80 °F 93 °F (1929)
Min Temperature 55 °F 58 °F 37 °F (1919)
Degree Days  
Heating Degree Days 0 1  
Month to date heating degree days 0 2  
Since 1 July heating degree days 406 560  
Cooling Degree Days 5 5  
Month to date cooling degree days 7 10  
Year to date cooling degree days 264 232  
Growing Degree Days 20 (Base 50)    
Moisture  
Dew Point 54 °F    
Average Humidity 60    
Maximum Humidity 93    
Minimum Humidity 27    
Precipitation  
Precipitation 0.00 in 0.11 in 1.74 in (1895)
Month to date precipitation 0.00 0.22  
Year to date precipitation 9.56 8.72  
Sea Level Pressure  
Sea Level Pressure 30.17 in    
Wind  
Wind Speed 6 mph (ESE)    
Max Wind Speed 16 mph    
Max Gust Speed 20 mph    
Visibility 10 miles    
Events Fog    
T = Trace of Precipitation, MM = Missing Value Source: NWS Daily Summary

Daily Weather History Graph

Daily Weather History Graph

Search for Another Location

Airport:

Trip Planner

Search our weather history database for the weather conditions in past years. The results will help you decide how hot, cold, wet, or windy it might be!

Date:

Astronomy

Apr. 02, 2014 Rise Set
Actual Time 7:14 AM EDT 7:43 PM EDT
Civil Twilight 6:50 AM EDT 8:07 PM EDT
Nautical Twilight 6:22 AM EDT 8:35 PM EDT
Astronomical Twilight 5:54 AM EDT 9:03 PM EDT
Moon 9:10 AM EDT (4/2) 10:50 PM EDT (4/2)
Length of Visible Light 13h 17m
Length of Day
12h 29m
Waxing Crescent, 10% of the Moon is Illuminated
Apr 2
Waxing Crescent
Apr 7
First Quarter
Apr 15
Full
Apr 22
Last Quarter
Apr 29
New

Hourly Weather History & Observations

Time (EDT) Temp. Heat Index Dew Point Humidity Pressure Visibility Wind Dir Wind Speed Gust Speed Precip Events Conditions
12:53 AM 62.1 °F - 55.9 °F 80% 30.18 in 10.0 mi SE 5.8 mph - N/A   Clear
1:53 AM 61.0 °F - 57.0 °F 87% 30.17 in 10.0 mi SSE 4.6 mph - N/A   Clear
2:53 AM 61.0 °F - 55.9 °F 83% 30.16 in 10.0 mi Calm Calm - N/A   Clear
3:53 AM 59.0 °F - 55.0 °F 87% 30.15 in 10.0 mi Calm Calm - N/A   Clear
4:53 AM 55.9 °F - 53.1 °F 90% 30.16 in 10.0 mi Calm Calm - N/A   Clear
5:53 AM 57.0 °F - 53.1 °F 87% 30.16 in 10.0 mi Calm Calm - N/A   Clear
6:53 AM 57.0 °F - 53.1 °F 87% 30.18 in 10.0 mi Calm Calm - N/A Fog Patches of Fog
8:53 AM 64.0 °F - 59.0 °F 84% 30.19 in 10.0 mi SSE 4.6 mph - N/A   Partly Cloudy
9:53 AM 70.0 °F - 57.0 °F 63% 30.20 in 10.0 mi SSE 10.4 mph - N/A   Scattered Clouds
10:53 AM 73.9 °F - 55.0 °F 52% 30.21 in 10.0 mi South 10.4 mph - N/A   Scattered Clouds
11:53 AM 75.0 °F - 54.0 °F 48% 30.21 in 10.0 mi Variable 5.8 mph - N/A   Scattered Clouds
12:53 PM 78.1 °F - 54.0 °F 43% 30.19 in 10.0 mi Calm Calm - N/A   Scattered Clouds
1:53 PM 81.0 °F 80.4 °F 53.1 °F 38% 30.18 in 10.0 mi Calm Calm - N/A   Scattered Clouds
2:53 PM 84.0 °F - 50.0 °F 31% 30.15 in 10.0 mi East 9.2 mph - N/A   Partly Cloudy
3:53 PM 84.0 °F - 48.9 °F 29% 30.14 in 10.0 mi East 9.2 mph - N/A   Clear
4:53 PM 84.9 °F - 48.9 °F 29% 30.12 in 10.0 mi ENE 9.2 mph - N/A   Clear
5:53 PM 84.0 °F - 46.9 °F 27% 30.12 in 10.0 mi East 8.1 mph - N/A   Clear
6:53 PM 78.1 °F - 51.1 °F 39% 30.14 in 10.0 mi East 15.0 mph - N/A   Clear
7:53 PM 73.0 °F - 54.0 °F 51% 30.16 in 10.0 mi East 11.5 mph - N/A   Partly Cloudy
8:53 PM 70.0 °F - 57.9 °F 65% 30.16 in 10.0 mi East 10.4 mph - N/A   Clear
9:53 PM 68.0 °F - 57.9 °F 70% 30.18 in 10.0 mi ESE 9.2 mph - N/A   Clear
10:53 PM 64.9 °F - 57.0 °F 75% 30.19 in 10.0 mi South 4.6 mph - N/A   Partly Cloudy
11:53 PM 64.9 °F - 57.9 °F 78% 30.18 in 10.0 mi SE 4.6 mph - N/A   Clear